Saginaw Browne, MI

3:32 PM EDT on March 24, 2017 (GMT -0400)
Saginaw County-Browne

Weather History for KHYX - June, 2013

Change the Weather History Date:

Saturday, June 29, 2013

  Actual Average (KMBS) Record (KMBS)
Temperature  
Mean Temperature 66 °F -  
Max Temperature 71 °F 80 °F 93 °F (1998)
Min Temperature 62 °F 58 °F 48 °F (2016)
Cooling Degree Days 2    
Growing Degree Days 16 (Base 50)    
Moisture  
Dew Point 61 °F    
Average Humidity 86    
Maximum Humidity 100    
Minimum Humidity 53    
Precipitation  
Precipitation 0.00 in - - ()
Sea Level Pressure  
Sea Level Pressure 29.65 in    
Wind  
Wind Speed 3 mph (NE)    
Max Wind Speed 13 mph    
Max Gust Speed 18 mph    
Visibility 9 miles    
Events Rain    
Averages and records for this station are not official NWS values.
T = Trace of Precipitation, MM = Missing Value Source: NWS Daily Summary

Daily Weather History Graph

Daily Weather History Graph

Search for Another Location

Airport or City:

Trip Planner

Search our weather history database for the weather conditions in past years. The results will help you decide how hot, cold, wet, or windy it might be!

Date:

Astronomy

Jun. 29, 2013 Rise Set
Actual Time 5:57 AM EDT 9:20 PM EDT
Civil Twilight 5:22 AM EDT 9:55 PM EDT
Nautical Twilight 4:35 AM EDT 10:42 PM EDT
Astronomical Twilight 3:37 AM EDT 11:39 PM EDT
Moon 12:36 AM EDT (6/29) 1:21 PM EDT (6/29)
Length of Visible Light 16h 33m
Length of Day
15h 22m
Waning Gibbous, 56% of the Moon is Illuminated
Jun 29
Waning Gibbous
Jun 30
Last Quarter
Jul 8
New
Jul 15
First Quarter
Jul 22
Full

Hourly Weather History & Observations

Time (EDT) Temp. Dew Point Humidity Pressure Visibility Wind Dir Wind Speed Gust Speed Precip Events Conditions
12:14 AM 64.4 °F 64.4 °F 100% 29.59 in 10.0 mi Calm Calm - N/A   Scattered Clouds
12:34 AM 64.4 °F 64.4 °F 100% 29.59 in 10.0 mi Calm Calm - N/A   Mostly Cloudy
12:54 AM 64.4 °F 64.4 °F 100% 29.58 in 10.0 mi Calm Calm - N/A   Mostly Cloudy
1:15 AM 64.4 °F 64.4 °F 100% 29.57 in 10.0 mi Calm Calm - N/A   Overcast
1:35 AM 64.4 °F 64.4 °F 100% 29.57 in 10.0 mi Calm Calm - N/A   Scattered Clouds
1:55 AM 64.4 °F 64.4 °F 100% 29.56 in 10.0 mi Calm Calm - N/A   Mostly Cloudy
2:10 AM 64.4 °F 64.4 °F 100% 29.57 in 5.0 mi Calm Calm - N/A Rain Heavy Rain
2:30 AM 64.4 °F 64.4 °F 100% 29.57 in 4.0 mi NNW 3.5 mph - N/A Rain Rain
2:50 AM 64.4 °F 64.4 °F 100% 29.57 in 4.0 mi NNW 3.5 mph - N/A Rain Rain
3:10 AM 64.4 °F 64.4 °F 100% 29.57 in 3.0 mi WNW 3.5 mph - N/A Rain Rain
3:30 AM 64.4 °F 64.4 °F 100% 29.57 in 7.0 mi Calm Calm - N/A Rain Light Rain
3:51 AM 64.4 °F 64.4 °F 100% 29.57 in 10.0 mi Calm Calm - N/A   Overcast
4:11 AM 64.4 °F 64.4 °F 100% 29.56 in 10.0 mi Calm Calm - N/A   Overcast
4:31 AM 64.4 °F 64.4 °F 100% 29.57 in 10.0 mi NNE 3.5 mph - N/A   Overcast
4:51 AM 64.4 °F 64.4 °F 100% 29.57 in 10.0 mi Calm Calm - N/A   Overcast
5:11 AM 64.4 °F 64.4 °F 100% 29.57 in 10.0 mi Calm Calm - N/A   Overcast
5:31 AM 62.6 °F 62.6 °F 100% 29.58 in 10.0 mi NNE 3.5 mph - N/A   Overcast
5:51 AM 62.6 °F 62.6 °F 100% 29.58 in 10.0 mi Calm Calm - N/A   Overcast
6:11 AM 62.6 °F 62.6 °F 100% 29.59 in 10.0 mi NNE 3.5 mph - N/A   Overcast
6:31 AM 62.6 °F 62.6 °F 100% 29.59 in 10.0 mi NE 3.5 mph - N/A   Overcast
6:51 AM 62.6 °F 60.8 °F 94% 29.59 in 10.0 mi NE 6.9 mph - N/A   Mostly Cloudy
7:11 AM 62.6 °F 60.8 °F 94% 29.60 in 10.0 mi ENE 6.9 mph - N/A   Mostly Cloudy
7:31 AM 62.6 °F 60.8 °F 94% 29.60 in 10.0 mi ENE 4.6 mph - N/A   Overcast
7:52 AM 62.6 °F 60.8 °F 94% 29.60 in 10.0 mi ENE 3.5 mph - N/A   Overcast
8:12 AM 62.6 °F 60.8 °F 94% 29.61 in 10.0 mi ENE 3.5 mph - N/A   Overcast
8:32 AM 62.6 °F 60.8 °F 94% 29.62 in 10.0 mi Calm Calm - N/A   Overcast
8:52 AM 64.4 °F 62.6 °F 94% 29.62 in 10.0 mi NE 5.8 mph - N/A   Overcast
9:12 AM 64.4 °F 62.6 °F 94% 29.62 in 10.0 mi NE 4.6 mph - N/A   Overcast
9:32 AM 64.4 °F 62.6 °F 94% 29.63 in 10.0 mi Calm Calm - N/A   Overcast
9:52 AM 64.4 °F 60.8 °F 88% 29.64 in 10.0 mi Calm Calm - N/A   Overcast
10:12 AM 62.6 °F 62.6 °F 100% 29.64 in 7.0 mi NE 3.5 mph - N/A   Overcast
10:32 AM 62.6 °F 62.6 °F 100% 29.64 in 5.0 mi NNE 9.2 mph - N/A   Drizzle
10:52 AM 62.6 °F 62.6 °F 100% 29.64 in 4.0 mi Calm Calm - N/A   Drizzle
11:13 AM 62.6 °F 62.6 °F 100% 29.65 in 3.0 mi Calm Calm - N/A   Drizzle
11:33 AM 62.6 °F 62.6 °F 100% 29.65 in 5.0 mi Calm Calm - N/A   Overcast
11:53 AM 62.6 °F 62.6 °F 100% 29.66 in 5.0 mi Calm Calm - N/A   Light Drizzle
12:13 PM 64.4 °F 64.4 °F 100% 29.66 in 10.0 mi Calm Calm - N/A Rain Light Rain
12:33 PM 64.4 °F 64.4 °F 100% 29.66 in 10.0 mi Calm Calm - N/A   Overcast
12:53 PM 66.2 °F 64.4 °F 94% 29.66 in 10.0 mi ENE 4.6 mph - N/A   Overcast
1:13 PM 68.0 °F 62.6 °F 83% 29.66 in 10.0 mi NNE 10.4 mph - N/A   Overcast
1:34 PM 68.0 °F 62.6 °F 83% 29.66 in 10.0 mi NNE 5.8 mph - N/A   Mostly Cloudy
1:54 PM 69.8 °F 62.6 °F 78% 29.66 in 10.0 mi Calm Calm - N/A   Mostly Cloudy
2:14 PM 69.8 °F 62.6 °F 78% 29.66 in 10.0 mi Calm Calm - N/A   Scattered Clouds
2:34 PM 69.8 °F 62.6 °F 78% 29.66 in 10.0 mi NNE 11.5 mph - N/A   Scattered Clouds
2:54 PM 71.6 °F 60.8 °F 69% 29.66 in 10.0 mi NNE 10.4 mph 17.3 mph N/A   Scattered Clouds
3:14 PM 71.6 °F 60.8 °F 69% 29.67 in 10.0 mi NNE 11.5 mph 18.4 mph N/A   Clear
3:34 PM 71.6 °F 60.8 °F 69% 29.67 in 10.0 mi NNE 11.5 mph 16.1 mph N/A   Clear
3:54 PM 71.6 °F 60.8 °F 69% 29.68 in 10.0 mi NNE 9.2 mph - N/A   Clear
4:15 PM 71.6 °F 60.8 °F 69% 29.68 in 10.0 mi NNE 9.2 mph - N/A   Clear
4:35 PM 71.6 °F 60.8 °F 69% 29.69 in 10.0 mi NNE 12.7 mph - N/A   Clear
4:55 PM 71.6 °F 57.2 °F 60% 29.68 in 10.0 mi NNE 10.4 mph - N/A   Clear
5:10 PM 71.6 °F 55.4 °F 57% 29.69 in 10.0 mi NE 12.7 mph 17.3 mph N/A   Clear
5:30 PM 71.6 °F 55.4 °F 57% 29.69 in 10.0 mi NE 10.4 mph - N/A   Clear
5:50 PM 71.6 °F 55.4 °F 57% 29.69 in 10.0 mi NNE 9.2 mph - N/A   Clear
6:10 PM 71.6 °F 57.2 °F 60% 29.69 in 10.0 mi NNE 5.8 mph - N/A   Clear
6:30 PM 69.8 °F 55.4 °F 60% 29.70 in 10.0 mi NE 10.4 mph - N/A   Scattered Clouds
6:50 PM 71.6 °F 55.4 °F 57% 29.70 in 10.0 mi NE 11.5 mph - N/A   Overcast
7:10 PM 71.6 °F 53.6 °F 53% 29.71 in 10.0 mi NE 4.6 mph - N/A   Mostly Cloudy
7:30 PM 69.8 °F 55.4 °F 60% 29.71 in 10.0 mi Calm Calm - N/A   Scattered Clouds
7:51 PM 69.8 °F 55.4 °F 60% 29.72 in 10.0 mi NE 6.9 mph - N/A   Mostly Cloudy
8:11 PM 68.0 °F 57.2 °F 68% 29.73 in 10.0 mi NE 3.5 mph - N/A   Scattered Clouds
8:31 PM 68.0 °F 59.0 °F 73% 29.73 in 10.0 mi NE 3.5 mph - N/A   Mostly Cloudy
8:51 PM 66.2 °F 59.0 °F 78% 29.74 in 10.0 mi NE 4.6 mph - N/A   Overcast
9:11 PM 66.2 °F 59.0 °F 78% 29.74 in 10.0 mi NE 4.6 mph - N/A   Overcast
9:31 PM 64.4 °F 59.0 °F 83% 29.75 in 10.0 mi NNE 3.5 mph - N/A   Scattered Clouds
9:51 PM 64.4 °F 59.0 °F 83% 29.75 in 10.0 mi NE 4.6 mph - N/A   Clear
10:11 PM 62.6 °F 59.0 °F 88% 29.76 in 10.0 mi NE 4.6 mph - N/A   Scattered Clouds
10:31 PM 62.6 °F 60.8 °F 94% 29.76 in 10.0 mi Calm Calm - N/A   Mostly Cloudy
10:51 PM 62.6 °F 60.8 °F 94% 29.77 in 10.0 mi Calm Calm - N/A   Overcast
11:11 PM 62.6 °F 59.0 °F 88% 29.77 in 10.0 mi Calm Calm - N/A   Overcast
11:32 PM 62.6 °F 59.0 °F 88% 29.77 in 10.0 mi Calm Calm - N/A   Scattered Clouds
11:52 PM 62.6 °F 59.0 °F 88% 29.77 in 10.0 mi Calm Calm - N/A   Scattered Clouds